Terminal Aerodrome Forecast
Issued by NWS Wilmington, OH

Current Version | Previous Version | Graphics & Text | Print | Product List | Glossary On
Versions: 1 2 3 4 5 6 7 8 9 10 11 12 13 14 15 16 17 18 19 20 21
000
FTUS41 KILN 171100
TAFCVG
TAF
KCVG 171130Z 1712/1818 17006KT P6SM BKN250
     FM171400 19010KT P6SM BKN250
     FM180000 17005KT P6SM BKN200
     FM180800 22007KT P6SM BKN050=

USA.gov is the U.S. government's official web portal to all federal, state and local government web resources and services.